Location: Sabalos
(43.2860°N, 0.1414°E)
Time: 10:37:12
(UTC+00:00)

Spot 4 - Pass Details

Date: 05 July 2020
Orbit: 705 x 723 km, 98.3° (Epoch: 06 August)

Event Time Altitude Azimuth Distance (km) Brightness Sun altitude
Exits shadow 22:59:06 60° 165° (SSE) 809 3.7 -22.4°
Maximum altitude 22:59:58 90° 86° (E) 714 3.7 -22.4°
Drops below altitude 10° 23:04:47 10° 347° (NNW) 2,186 7.5 -22.6°
Sets 23:07:02 0° 347° (NNW) 3,108 8.7 -22.8°
